Time,TemperatureF,DewpointF,PressureIn,WindDirection,WindDirectionDegrees,WindSpeedMPH,WindSpeedGustMPH,Humidity,HourlyPrecipIn,Conditions,Clouds,dailyrainin,SoftwareType,DateUTC
2013-04-15 00:00:00,28.9,26.1,29.45,East,90,8.9,8.9,89,0.00,,,0.06,WUHU216HW,2013-04-15 05:00:00,
2013-04-15 00:05:00,28.9,26.1,29.46,East,90,8.9,8.9,89,0.00,,,0.00,WUHU216HW,2013-04-15 05:05:00,
2013-04-15 00:10:00,28.9,26.1,29.45,East,90,7.3,8.9,89,0.00,,,0.00,WUHU216HW,2013-04-15 05:10:00,
2013-04-15 00:15:00,28.9,26.1,29.45,East,90,7.3,8.9,89,0.00,,,0.00,WUHU216HW,2013-04-15 05:15:00,
2013-04-15 00:20:00,28.9,26.1,29.45,East,90,7.3,7.3,89,0.00,,,0.00,WUHU216HW,2013-04-15 05:20:00,
2013-04-15 00:25:00,28.9,26.1,29.45,East,90,7.3,7.3,89,0.00,,,0.00,WUHU216HW,2013-04-15 05:25:00,
2013-04-15 00:30:00,28.7,25.9,29.44,East,90,7.3,7.3,89,0.00,,,0.00,WUHU216HW,2013-04-15 05:30:00,
2013-04-15 00:35:00,28.7,25.9,29.44,East,90,7.3,7.3,89,0.00,,,0.00,WUHU216HW,2013-04-15 05:35:00,
2013-04-15 00:40:00,28.7,25.9,29.44,East,90,5.4,7.3,89,0.00,,,0.00,WUHU216HW,2013-04-15 05:40:00,
2013-04-15 00:45:00,28.2,25.4,29.44,East,90,5.0,7.3,89,0.00,,,0.00,WUHU216HW,2013-04-15 05:45:00,
2013-04-15 00:50:00,28.2,25.4,29.44,East,90,5.0,5.0,89,0.00,,,0.00,WUHU216HW,2013-04-15 05:50:00,
2013-04-15 00:55:00,28.0,25.2,29.44,East,90,3.4,5.0,89,0.00,,,0.00,WUHU216HW,2013-04-15 05:55:00,
2013-04-15 01:00:00,28.0,25.2,29.44,East,90,2.6,3.9,89,0.00,,,0.00,WUHU216HW,2013-04-15 06:00:00,
2013-04-15 01:05:00,28.0,25.2,29.44,East,90,0.0,3.3,89,0.00,,,0.00,WUHU216HW,2013-04-15 06:05:00,
2013-04-15 01:10:00,28.0,25.2,29.45,East,90,1.6,2.8,89,0.00,,,0.00,WUHU216HW,2013-04-15 06:10:00,
2013-04-15 01:15:00,28.0,25.2,29.45,East,90,0.3,1.6,89,0.00,,,0.00,WUHU216HW,2013-04-15 06:15:00,
2013-04-15 01:20:00,28.0,25.2,29.45,East,90,0.0,0.3,89,0.00,,,0.00,WUHU216HW,2013-04-15 06:20:00,
2013-04-15 01:25:00,28.0,25.2,29.45,East,90,0.0,0.0,89,0.00,,,0.00,WUHU216HW,2013-04-15 06:25:00,
2013-04-15 01:30:00,27.8,25.0,29.45,East,90,0.0,0.0,89,0.00,,,0.00,WUHU216HW,2013-04-15 06:30:00,
2013-04-15 01:35:00,27.6,25.0,29.45,East,90,0.0,0.0,89,0.00,,,0.00,WUHU216HW,2013-04-15 06:35:00,
2013-04-15 01:40:00,27.6,24.8,29.45,East,90,0.0,0.0,89,0.00,,,0.00,WUHU216HW,2013-04-15 06:40:00,
2013-04-15 01:45:00,27.6,24.8,29.45,East,90,0.0,0.0,89,0.00,,,0.00,WUHU216HW,2013-04-15 06:45:00,
2013-04-15 01:50:00,27.6,24.8,29.45,East,90,2.5,2.8,89,0.00,,,0.00,WUHU216HW,2013-04-15 06:50:00,
2013-04-15 01:55:00,27.6,24.8,29.45,East,90,2.8,2.8,89,0.00,,,0.00,WUHU216HW,2013-04-15 06:55:00,
2013-04-15 02:00:00,27.6,24.8,29.45,East,90,4.1,4.1,89,0.00,,,0.00,WUHU216HW,2013-04-15 07:00:00,
2013-04-15 02:05:00,27.6,24.8,29.45,East,90,3.0,4.1,89,0.00,,,0.00,WUHU216HW,2013-04-15 07:05:00,
2013-04-15 02:17:00,27.6,24.8,29.45,East,90,3.3,3.3,89,0.00,,,0.00,WUHU216HW,2013-04-15 07:17:00,
2013-04-15 02:24:00,27.6,24.8,29.45,East,90,3.9,3.9,89,0.00,,,0.00,WUHU216HW,2013-04-15 07:24:00,
2013-04-15 02:30:00,27.5,24.6,29.46,East,90,0.8,3.9,89,0.00,,,0.00,WUHU216HW,2013-04-15 07:30:00,
2013-04-15 02:41:00,27.5,24.6,29.46,East,90,1.9,5.5,89,0.00,,,0.00,WUHU216HW,2013-04-15 07:41:00,
2013-04-15 02:42:00,27.5,24.6,29.46,East,90,1.9,5.5,89,0.00,,,0.00,WUHU216HW,2013-04-15 07:42:00,
2013-04-15 02:47:00,27.5,24.6,29.46,East,90,3.7,4.4,89,0.00,,,0.00,WUHU216HW,2013-04-15 07:47:00,
2013-04-15 02:48:00,27.5,24.6,29.46,East,90,3.0,4.4,89,0.00,,,0.00,WUHU216HW,2013-04-15 07:48:00,
2013-04-15 02:53:00,27.5,24.6,29.46,East,90,5.3,5.3,89,0.00,,,0.00,WUHU216HW,2013-04-15 07:53:00,
2013-04-15 02:58:00,27.5,24.6,29.46,East,90,3.9,5.3,89,0.00,,,0.00,WUHU216HW,2013-04-15 07:58:00,
2013-04-15 03:03:00,27.5,24.6,29.46,East,90,4.5,8.0,89,0.00,,,0.00,WUHU216HW,2013-04-15 08:03:00,
2013-04-15 03:08:00,27.5,24.6,29.46,East,90,3.9,8.0,89,0.00,,,0.00,WUHU216HW,2013-04-15 08:08:00,
2013-04-15 03:14:00,27.5,24.6,29.46,East,90,3.3,3.9,89,0.00,,,0.00,WUHU216HW,2013-04-15 08:14:00,
2013-04-15 03:19:00,27.5,24.6,29.46,East,90,6.4,7.5,89,0.00,,,0.00,WUHU216HW,2013-04-15 08:19:00,
2013-04-15 03:24:00,27.5,24.6,29.46,East,90,5.5,7.5,89,0.00,,,0.00,WUHU216HW,2013-04-15 08:24:00,
2013-04-15 03:29:00,27.5,24.6,29.46,East,90,7.3,7.3,89,0.00,,,0.00,WUHU216HW,2013-04-15 08:29:00,
2013-04-15 03:34:00,27.5,24.6,29.46,East,90,8.9,8.9,89,0.00,,,0.00,WUHU216HW,2013-04-15 08:34:00,
2013-04-15 03:35:00,27.5,24.6,29.46,East,90,8.9,8.9,89,0.00,,,0.00,WUHU216HW,2013-04-15 08:35:00,
2013-04-15 03:40:00,27.5,24.6,29.47,East,90,6.6,8.9,89,0.00,,,0.00,WUHU216HW,2013-04-15 08:40:00,
2013-04-15 03:45:00,27.5,24.6,29.47,East,90,8.0,8.0,89,0.00,,,0.00,WUHU216HW,2013-04-15 08:45:00,
2013-04-15 03:50:00,27.5,24.6,29.47,East,90,8.0,8.0,89,0.00,,,0.00,WUHU216HW,2013-04-15 08:50:00,
2013-04-15 03:57:00,27.5,24.6,29.48,East,90,10.0,10.0,89,0.00,,,0.00,WUHU216HW,2013-04-15 08:57:00,
2013-04-15 04:02:00,27.5,24.6,29.48,East,90,10.0,10.0,89,0.00,,,0.00,WUHU216HW,2013-04-15 09:02:00,
2013-04-15 04:07:00,27.5,24.6,29.49,East,90,8.6,10.0,89,0.00,,,0.00,WUHU216HW,2013-04-15 09:07:00,
2013-04-15 04:12:00,27.5,24.6,29.49,East,90,10.3,10.3,89,0.00,,,0.00,WUHU216HW,2013-04-15 09:12:00,
2013-04-15 04:17:00,27.5,24.6,29.49,East,90,10.9,10.9,89,0.00,,,0.00,WUHU216HW,2013-04-15 09:17:00,
2013-04-15 04:22:00,27.5,24.6,29.49,East,90,10.0,10.9,89,0.00,,,0.00,WUHU216HW,2013-04-15 09:22:00,
2013-04-15 04:27:00,27.6,24.8,29.49,East,90,11.3,11.6,89,0.00,,,0.00,WUHU216HW,2013-04-15 09:27:00,
2013-04-15 04:32:00,27.6,24.8,29.50,East,90,10.9,11.6,89,0.00,,,0.00,WUHU216HW,2013-04-15 09:32:00,
2013-04-15 04:37:00,27.6,24.8,29.50,East,90,11.4,11.4,89,0.00,,,0.00,WUHU216HW,2013-04-15 09:37:00,
2013-04-15 04:42:00,27.6,24.8,29.50,East,90,13.4,13.4,89,0.00,,,0.00,WUHU216HW,2013-04-15 09:42:00,
2013-04-15 04:47:00,27.6,24.8,29.50,East,90,9.8,13.4,89,0.00,,,0.00,WUHU216HW,2013-04-15 09:47:00,
2013-04-15 04:52:00,27.6,24.8,29.50,East,90,12.5,13.9,89,0.00,,,0.00,WUHU216HW,2013-04-15 09:52:00,
2013-04-15 04:57:00,27.6,24.8,29.51,East,90,11.6,13.9,89,0.00,,,0.00,WUHU216HW,2013-04-15 09:57:00,
2013-04-15 05:02:00,27.6,24.8,29.50,East,90,11.6,13.1,89,0.00,,,0.00,WUHU216HW,2013-04-15 10:02:00,
2013-04-15 05:07:00,27.6,24.8,29.51,East,90,11.6,11.6,89,0.00,,,0.00,WUHU216HW,2013-04-15 10:07:00,
2013-04-15 05:12:00,27.6,24.8,29.51,East,90,14.5,14.5,89,0.00,,,0.00,WUHU216HW,2013-04-15 10:12:00,
2013-04-15 05:17:00,27.6,24.8,29.51,East,90,12.8,14.5,89,0.00,,,0.00,WUHU216HW,2013-04-15 10:17:00,
2013-04-15 05:22:00,27.6,24.8,29.51,East,90,22.0,22.0,89,0.00,,,0.00,WUHU216HW,2013-04-15 10:22:00,
2013-04-15 05:27:00,27.6,24.8,29.50,East,90,18.1,22.0,89,0.00,,,0.00,WUHU216HW,2013-04-15 10:27:00,
2013-04-15 05:32:00,27.6,24.8,29.51,East,90,12.8,22.0,89,0.00,,,0.00,WUHU216HW,2013-04-15 10:32:00,
2013-04-15 05:37:00,27.6,24.8,29.51,East,90,12.0,17.5,89,0.00,,,0.00,WUHU216HW,2013-04-15 10:37:00,
2013-04-15 05:42:00,27.6,24.8,29.52,East,90,16.4,17.5,89,0.00,,,0.00,WUHU216HW,2013-04-15 10:42:00,
2013-04-15 05:47:00,27.6,24.8,29.52,East,90,16.1,17.3,89,0.00,,,0.00,WUHU216HW,2013-04-15 10:47:00,
2013-04-15 05:52:00,27.6,24.8,29.52,East,90,12.5,16.1,89,0.00,,,0.00,WUHU216HW,2013-04-15 10:52:00,
2013-04-15 05:57:00,27.6,24.8,29.52,East,90,13.9,16.1,89,0.00,,,0.00,WUHU216HW,2013-04-15 10:57:00,
2013-04-15 06:03:00,27.6,24.8,29.51,East,90,19.8,19.8,89,0.00,,,0.00,WUHU216HW,2013-04-15 11:03:00,
2013-04-15 06:08:00,27.8,25.0,29.51,East,90,19.0,19.8,89,0.00,,,0.00,WUHU216HW,2013-04-15 11:08:00,
2013-04-15 06:13:00,28.0,25.2,29.51,East,90,17.5,19.3,89,0.00,,,0.00,WUHU216HW,2013-04-15 11:13:00,
2013-04-15 06:18:00,27.8,25.0,29.51,East,90,22.9,22.9,89,0.00,,,0.00,WUHU216HW,2013-04-15 11:18:00,
2013-04-15 06:23:00,27.6,24.8,29.51,ENE,68,15.6,26.0,89,0.00,,,0.00,WUHU216HW,2013-04-15 11:23:00,
2013-04-15 06:28:00,27.6,24.8,29.52,NE,45,10.3,26.0,89,0.00,,,0.00,WUHU216HW,2013-04-15 11:28:00,
2013-04-15 06:33:00,27.6,24.8,29.52,NE,45,9.1,15.6,89,0.00,,,0.00,WUHU216HW,2013-04-15 11:33:00,
2013-04-15 06:38:00,27.6,24.8,29.53,NE,45,6.4,9.1,89,0.00,,,0.00,WUHU216HW,2013-04-15 11:38:00,
2013-04-15 06:43:00,27.6,24.8,29.53,NE,45,8.0,8.9,89,0.00,,,0.00,WUHU216HW,2013-04-15 11:43:00,
2013-04-15 06:48:00,27.6,24.8,29.54,NE,45,8.4,9.1,89,0.00,,,0.00,WUHU216HW,2013-04-15 11:48:00,
2013-04-15 06:53:00,27.6,24.8,29.54,NE,45,9.5,9.5,89,0.00,,,0.00,WUHU216HW,2013-04-15 11:53:00,
2013-04-15 06:58:00,27.6,24.8,29.54,NE,45,7.3,12.8,89,0.00,,,0.00,WUHU216HW,2013-04-15 11:58:00,
2013-04-15 07:03:00,28.0,25.2,29.54,NE,45,9.1,12.8,89,0.00,,,0.00,WUHU216HW,2013-04-15 12:03:00,
2013-04-15 07:08:00,28.0,25.2,29.55,NE,45,8.0,9.5,89,0.00,,,0.00,WUHU216HW,2013-04-15 12:08:00,
2013-04-15 07:13:00,28.2,25.4,29.54,NE,45,6.4,8.0,89,0.00,,,0.00,WUHU216HW,2013-04-15 12:13:00,
2013-04-15 07:18:00,28.2,25.4,29.55,NE,45,5.0,8.0,89,0.00,,,0.00,WUHU216HW,2013-04-15 12:18:00,
2013-04-15 07:23:00,28.4,25.5,29.56,NE,45,6.6,7.8,89,0.00,,,0.00,WUHU216HW,2013-04-15 12:23:00,
2013-04-15 07:28:00,28.5,25.7,29.55,NE,45,8.9,10.6,89,0.00,,,0.00,WUHU216HW,2013-04-15 12:28:00,
2013-04-15 07:33:00,28.5,25.7,29.56,NE,45,9.1,10.6,89,0.00,,,0.00,WUHU216HW,2013-04-15 12:33:00,
2013-04-15 07:39:00,28.5,25.7,29.57,NNE,23,7.5,9.1,89,0.00,,,0.00,WUHU216HW,2013-04-15 12:39:00,
2013-04-15 07:44:00,28.7,25.9,29.57,NNE,23,7.1,8.0,89,0.00,,,0.00,WUHU216HW,2013-04-15 12:44:00,
2013-04-15 07:49:00,28.7,25.9,29.58,NNE,23,7.8,8.0,89,0.00,,,0.00,WUHU216HW,2013-04-15 12:49:00,
2013-04-15 07:54:00,28.7,25.6,29.58,NNE,23,5.5,7.8,88,0.00,,,0.00,WUHU216HW,2013-04-15 12:54:00,
2013-04-15 07:59:00,28.7,25.9,29.59,NNE,23,6.1,7.8,89,0.00,,,0.00,WUHU216HW,2013-04-15 12:59:00,
2013-04-15 08:04:00,28.7,25.9,29.59,NNE,23,6.1,6.1,89,0.00,,,0.00,WUHU216HW,2013-04-15 13:04:00,
2013-04-15 08:09:00,28.7,25.9,29.60,NNE,23,6.1,6.1,89,0.00,,,0.00,WUHU216HW,2013-04-15 13:09:00,
2013-04-15 08:14:00,28.7,25.9,29.60,NNE,23,6.1,6.1,89,0.00,,,0.00,WUHU216HW,2013-04-15 13:14:00,
2013-04-15 08:19:00,28.7,25.9,29.60,NNE,23,6.1,6.1,89,0.00,,,0.00,WUHU216HW,2013-04-15 13:19:00,
2013-04-15 09:34:00,31.2,28.1,29.63,WNW,293,25.6,25.6,88,0.00,,,0.00,WUHU216HW,2013-04-15 14:34:00,
2013-04-15 09:39:00,31.2,28.1,29.63,WNW,293,26.5,26.5,88,0.00,,,0.00,WUHU216HW,2013-04-15 14:39:00,
2013-04-15 09:44:00,31.2,28.1,29.63,WNW,293,26.5,26.5,88,0.00,,,0.00,WUHU216HW,2013-04-15 14:44:00,
2013-04-15 09:49:00,31.2,28.1,29.64,WNW,293,26.5,26.5,88,0.00,,,0.00,WUHU216HW,2013-04-15 14:49:00,
2013-04-15 09:54:00,31.2,28.1,29.64,WNW,293,26.5,26.5,88,0.00,,,0.00,WUHU216HW,2013-04-15 14:54:00,
2013-04-15 09:59:00,31.2,28.1,29.64,WNW,293,25.1,26.5,88,0.00,,,0.00,WUHU216HW,2013-04-15 14:59:00,
2013-04-15 10:04:00,31.2,28.1,29.65,WNW,293,25.1,26.5,88,0.00,,,0.00,WUHU216HW,2013-04-15 15:04:00,
2013-04-15 10:09:00,31.8,28.7,29.65,WNW,293,30.4,34.6,88,0.00,,,0.00,WUHU216HW,2013-04-15 15:09:00,
2013-04-15 10:15:00,31.8,28.7,29.65,WNW,293,30.4,34.6,88,0.00,,,0.00,WUHU216HW,2013-04-15 15:15:00,
2013-04-15 10:20:00,31.8,28.7,29.65,WNW,293,30.4,30.4,88,0.00,,,0.00,WUHU216HW,2013-04-15 15:20:00,
2013-04-15 10:30:00,0.0,0.0,29.66,WNW,293,29.9,29.9,87,0.00,,,0.00,WUHU216HW,2013-04-15 15:30:00,
2013-04-15 10:36:00,0.0,-3.2,29.66,WNW,293,31.0,31.0,86,0.00,,,0.00,WUHU216HW,2013-04-15 15:36:00,
2013-04-15 10:41:00,0.0,-3.2,29.67,WNW,293,27.6,31.0,86,0.00,,,0.00,WUHU216HW,2013-04-15 15:41:00,
2013-04-15 10:46:00,32.5,28.8,29.67,WNW,293,27.6,27.6,86,0.00,,,0.00,WUHU216HW,2013-04-15 15:46:00,
2013-04-15 10:51:00,32.5,28.8,29.69,WNW,293,27.6,27.6,86,0.00,,,0.00,WUHU216HW,2013-04-15 15:51:00,
2013-04-15 10:55:00,32.5,28.8,29.69,WNW,293,27.6,27.6,86,0.00,,,0.00,WUHU216HW,2013-04-15 15:55:00,
2013-04-15 11:00:00,32.5,28.8,29.69,WNW,293,27.6,27.6,86,0.00,,,0.00,WUHU216HW,2013-04-15 16:00:00,
2013-04-15 11:32:00,33.6,29.2,29.72,WNW,293,24.3,24.3,84,0.00,,,0.00,WUHU216HW,2013-04-15 16:32:00,
2013-04-15 11:37:00,33.8,29.3,29.72,WNW,293,27.6,27.6,84,0.03,,,0.03,WUHU216HW,2013-04-15 16:37:00,
2013-04-15 11:42:00,33.8,29.6,29.72,WNW,293,27.6,27.6,85,0.03,,,0.03,WUHU216HW,2013-04-15 16:42:00,
2013-04-15 11:47:00,33.9,29.2,29.72,WNW,293,35.8,35.8,83,0.03,,,0.03,WUHU216HW,2013-04-15 16:47:00,
2013-04-15 11:52:00,33.8,29.0,29.72,WNW,293,27.9,35.8,83,0.03,,,0.03,WUHU216HW,2013-04-15 16:52:00,
2013-04-15 11:57:00,33.8,29.3,29.72,WNW,293,30.8,34.0,84,0.03,,,0.03,WUHU216HW,2013-04-15 16:57:00,
2013-04-15 12:02:00,33.8,29.0,29.73,WNW,293,14.8,31.9,83,0.00,,,0.03,WUHU216HW,2013-04-15 17:02:00,
2013-04-15 12:07:00,34.1,29.4,29.74,WNW,293,27.9,31.9,83,0.00,,,0.03,WUHU216HW,2013-04-15 17:07:00,
2013-04-15 12:12:00,34.1,29.4,29.74,WNW,293,25.1,27.9,83,0.00,,,0.03,WUHU216HW,2013-04-15 17:12:00,
2013-04-15 12:17:00,34.1,29.1,29.74,WNW,293,28.9,34.4,82,0.00,,,0.03,WUHU216HW,2013-04-15 17:17:00,
2013-04-15 12:21:00,34.1,29.4,29.75,West,279,26.8,34.4,83,0.00,,,0.03,WUHU216HW,2013-04-15 17:21:00,
2013-04-15 12:22:00,34.1,29.4,29.75,WNW,293,26.0,34.4,83,0.00,,,0.03,WUHU216HW,2013-04-15 17:22:00,
2013-04-15 12:25:00,34.1,29.1,29.75,WNW,282,24.3,34.4,82,0.00,,,0.03,WUHU216HW,2013-04-15 17:25:00,
2013-04-15 12:30:00,34.1,28.5,29.75,WNW,293,23.4,26.0,80,0.00,,,0.03,WUHU216HW,2013-04-15 17:30:00,
2013-04-15 12:35:00,34.3,29.0,29.76,WNW,293,29.9,29.9,81,0.00,,,0.03,WUHU216HW,2013-04-15 17:35:00,
2013-04-15 12:40:00,34.3,29.0,29.76,West,270,20.8,29.9,81,0.00,,,0.03,WUHU216HW,2013-04-15 17:40:00,
2013-04-15 12:45:00,34.3,28.7,29.77,WNW,293,24.5,27.6,80,0.00,,,0.03,WUHU216HW,2013-04-15 17:45:00,
2013-04-15 12:50:00,33.9,28.4,29.77,WNW,293,29.9,29.9,80,0.00,,,0.03,WUHU216HW,2013-04-15 17:50:00,
2013-04-15 12:55:00,33.4,27.8,29.77,WNW,293,37.1,37.1,80,0.00,,,0.03,WUHU216HW,2013-04-15 17:55:00,
2013-04-15 13:00:00,32.9,27.6,29.78,WNW,293,26.5,37.1,81,0.00,,,0.03,WUHU216HW,2013-04-15 18:00:00,
2013-04-15 13:05:00,33.6,28.6,29.78,WNW,293,22.6,36.3,82,0.00,,,0.03,WUHU216HW,2013-04-15 18:05:00,
2013-04-15 13:10:00,34.3,28.7,29.78,WNW,293,27.4,29.9,80,0.00,,,0.03,WUHU216HW,2013-04-15 18:10:00,
2013-04-15 13:15:00,34.3,28.7,29.78,WNW,293,28.0,32.6,80,0.02,,,0.05,WUHU216HW,2013-04-15 18:15:00,
2013-04-15 13:20:00,34.3,28.6,29.78,WNW,293,27.4,32.6,80,0.02,,,0.05,WUHU216HW,2013-04-15 18:20:00,
2013-04-15 13:25:00,34.3,28.4,29.78,WNW,293,19.8,27.9,79,0.02,,,0.05,WUHU216HW,2013-04-15 18:25:00,
2013-04-15 13:29:00,34.3,28.4,29.79,WNW,293,31.8,36.9,79,0.02,,,0.05,WUHU216HW,2013-04-15 18:29:00,
2013-04-15 13:34:00,34.3,28.1,29.80,West,270,20.6,36.9,78,0.02,,,0.05,WUHU216HW,2013-04-15 18:34:00,
2013-04-15 13:39:00,34.3,28.1,29.80,WNW,293,26.0,26.8,78,0.02,,,0.05,WUHU216HW,2013-04-15 18:39:00,
2013-04-15 13:44:00,33.9,28.0,29.80,WNW,293,20.4,26.0,79,0.02,,,0.05,WUHU216HW,2013-04-15 18:44:00,
2013-04-15 13:49:00,34.1,28.5,29.80,WNW,293,27.4,27.4,80,0.02,,,0.05,WUHU216HW,2013-04-15 18:49:00,
2013-04-15 13:54:00,34.7,28.7,29.80,West,270,26.8,28.5,79,0.02,,,0.05,WUHU216HW,2013-04-15 18:54:00,
2013-04-15 13:59:00,35.2,29.0,29.81,WSW,258,24.7,28.5,78,0.02,,,0.05,WUHU216HW,2013-04-15 18:59:00,
2013-04-15 14:04:00,35.7,28.9,29.81,WNW,293,25.1,26.8,76,0.02,,,0.05,WUHU216HW,2013-04-15 19:04:00,
2013-04-15 14:09:00,35.2,28.3,29.80,WNW,293,27.9,31.9,76,0.02,,,0.05,WUHU216HW,2013-04-15 19:09:00,
2013-04-15 14:14:00,34.7,28.1,29.80,WNW,293,32.4,36.0,77,0.00,,,0.05,WUHU216HW,2013-04-15 19:14:00,
2013-04-15 14:19:00,34.8,28.3,29.81,WNW,293,28.2,36.0,77,0.00,,,0.05,WUHU216HW,2013-04-15 19:19:00,
2013-04-15 14:24:00,36.1,29.5,29.81,WNW,293,24.9,32.4,77,0.00,,,0.05,WUHU216HW,2013-04-15 19:24:00,
2013-04-15 14:29:00,36.1,29.2,29.82,WNW,293,24.5,26.8,76,0.00,,,0.05,WUHU216HW,2013-04-15 19:29:00,
2013-04-15 14:34:00,35.9,28.7,29.83,WNW,293,24.0,33.5,75,0.00,,,0.05,WUHU216HW,2013-04-15 19:34:00,
2013-04-15 14:39:00,35.7,28.5,29.82,WNW,293,32.9,35.8,75,0.00,,,0.05,WUHU216HW,2013-04-15 19:39:00,
2013-04-15 14:45:00,35.2,28.3,29.83,WNW,293,26.0,36.6,76,0.00,,,0.05,WUHU216HW,2013-04-15 19:45:00,
2013-04-15 14:50:00,34.8,27.6,29.83,WNW,293,30.4,34.6,75,0.00,,,0.05,WUHU216HW,2013-04-15 19:50:00,
2013-04-15 14:55:00,34.7,27.5,29.83,WNW,293,32.8,34.6,75,0.00,,,0.05,WUHU216HW,2013-04-15 19:55:00,
2013-04-15 14:57:00,34.8,27.6,29.83,WNW,293,30.1,34.6,75,0.00,,,0.05,WUHU216HW,2013-04-15 19:57:00,
2013-04-15 14:59:00,34.8,27.6,29.83,WNW,293,24.3,34.0,75,0.00,,,0.05,WUHU216HW,2013-04-15 19:59:00,
2013-04-15 15:01:00,34.8,27.6,29.83,WNW,293,22.3,34.0,75,0.00,,,0.05,WUHU216HW,2013-04-15 20:01:00,
2013-04-15 15:02:00,34.8,27.6,29.83,WNW,293,21.0,34.0,75,0.00,,,0.05,WUHU216HW,2013-04-15 20:02:00,
2013-04-15 15:03:00,34.8,27.6,29.83,WNW,293,19.8,34.0,75,0.00,,,0.05,WUHU216HW,2013-04-15 20:03:00,
2013-04-15 15:08:00,34.8,27.3,29.83,WNW,293,34.6,38.0,74,0.00,,,0.05,WUHU216HW,2013-04-15 20:08:00,
2013-04-15 15:13:00,34.7,27.5,29.84,WNW,293,26.5,38.0,75,0.00,,,0.05,WUHU216HW,2013-04-15 20:13:00,
2013-04-15 15:18:00,35.4,27.8,29.84,WNW,293,26.8,35.1,74,0.00,,,0.05,WUHU216HW,2013-04-15 20:18:00,
2013-04-15 15:23:00,34.8,27.3,29.84,WNW,293,29.0,31.0,74,0.00,,,0.05,WUHU216HW,2013-04-15 20:23:00,
2013-04-15 15:28:00,34.7,27.5,29.84,WNW,293,25.4,31.0,75,0.00,,,0.05,WUHU216HW,2013-04-15 20:28:00,
2013-04-15 15:33:00,34.3,27.1,29.85,WNW,293,22.6,31.3,75,0.00,,,0.05,WUHU216HW,2013-04-15 20:33:00,
2013-04-15 15:38:00,33.9,27.1,29.85,WNW,301,29.3,36.9,76,0.00,,,0.05,WUHU216HW,2013-04-15 20:38:00,
2013-04-15 15:43:00,34.3,27.4,29.85,WNW,293,25.6,36.9,76,0.00,,,0.05,WUHU216HW,2013-04-15 20:43:00,
2013-04-15 15:48:00,34.5,27.1,29.85,WNW,293,32.9,32.9,74,0.00,,,0.05,WUHU216HW,2013-04-15 20:48:00,
2013-04-15 15:53:00,34.3,27.4,29.86,WNW,293,19.0,32.9,76,0.00,,,0.05,WUHU216HW,2013-04-15 20:53:00,
2013-04-15 15:58:00,34.3,27.1,29.86,WNW,293,22.6,32.1,75,0.00,,,0.05,WUHU216HW,2013-04-15 20:58:00,
2013-04-15 16:03:00,34.7,27.5,29.87,WNW,293,24.5,25.4,75,0.00,,,0.05,WUHU216HW,2013-04-15 21:03:00,
2013-04-15 16:08:00,34.5,26.9,29.87,WNW,293,22.0,25.1,74,0.00,,,0.05,WUHU216HW,2013-04-15 21:08:00,
2013-04-15 16:13:00,34.8,27.6,29.87,West,270,24.3,28.5,75,0.00,,,0.05,WUHU216HW,2013-04-15 21:13:00,
2013-04-15 16:18:00,34.8,27.6,29.88,WNW,293,26.6,28.5,75,0.00,,,0.05,WUHU216HW,2013-04-15 21:18:00,
2013-04-15 16:23:00,34.5,26.9,29.88,WNW,293,27.9,27.9,74,0.00,,,0.05,WUHU216HW,2013-04-15 21:23:00,
2013-04-15 16:28:00,34.3,27.1,29.88,WNW,293,25.4,27.9,75,0.00,,,0.05,WUHU216HW,2013-04-15 21:28:00,
2013-04-15 16:33:00,34.3,27.1,29.87,WNW,293,13.6,27.9,75,0.00,,,0.05,WUHU216HW,2013-04-15 21:33:00,
2013-04-15 16:38:00,34.3,27.4,29.88,WNW,293,24.3,27.6,76,0.00,,,0.05,WUHU216HW,2013-04-15 21:38:00,
2013-04-15 16:43:00,34.3,26.7,29.88,WNW,293,28.5,28.5,75,0.00,,,0.05,WUHU216HW,2013-04-15 21:43:00,
2013-04-15 16:48:00,34.1,26.6,29.87,WNW,293,31.0,31.0,74,0.00,,,0.05,WUHU216HW,2013-04-15 21:48:00,
2013-04-15 16:53:00,33.9,26.7,29.87,WNW,293,27.6,31.0,75,0.00,,,0.05,WUHU216HW,2013-04-15 21:53:00,
2013-04-15 16:58:00,33.6,26.7,29.87,WNW,283,25.7,29.9,76,0.00,,,0.05,WUHU216HW,2013-04-15 21:58:00,
2013-04-15 17:03:00,33.6,27.0,29.88,WNW,293,23.1,29.6,77,0.00,,,0.05,WUHU216HW,2013-04-15 22:03:00,
2013-04-15 17:08:00,33.6,26.1,29.89,WNW,293,29.6,29.6,74,0.00,,,0.05,WUHU216HW,2013-04-15 22:08:00,
2013-04-15 17:13:00,33.6,26.4,29.90,WNW,293,26.5,29.6,75,0.00,,,0.05,WUHU216HW,2013-04-15 22:13:00,
2013-04-15 17:18:00,33.6,26.7,29.91,West,270,29.3,29.3,76,0.00,,,0.05,WUHU216HW,2013-04-15 22:18:00,
2013-04-15 17:23:00,33.4,26.6,29.92,WNW,293,20.2,29.3,76,0.00,,,0.05,WUHU216HW,2013-04-15 22:23:00,
2013-04-15 17:28:00,33.4,26.6,29.92,WNW,293,19.9,26.8,76,0.00,,,0.05,WUHU216HW,2013-04-15 22:28:00,
2013-04-15 17:33:00,33.2,25.7,29.92,WNW,293,29.3,29.3,75,0.00,,,0.05,WUHU216HW,2013-04-15 22:33:00,
2013-04-15 17:38:00,33.0,25.9,29.92,WNW,293,26.1,32.1,75,0.00,,,0.05,WUHU216HW,2013-04-15 22:38:00,
2013-04-15 17:43:00,32.9,26.1,29.92,WNW,293,27.6,32.1,76,0.00,,,0.05,WUHU216HW,2013-04-15 22:43:00,
2013-04-15 17:48:00,32.7,25.9,29.92,WNW,293,30.6,33.3,76,0.00,,,0.05,WUHU216HW,2013-04-15 22:48:00,
2013-04-15 17:53:00,32.7,26.2,29.92,NW,315,20.6,33.3,77,0.00,,,0.05,WUHU216HW,2013-04-15 22:53:00,
2013-04-15 17:58:00,32.7,25.9,29.92,NW,315,21.3,27.9,76,0.00,,,0.05,WUHU216HW,2013-04-15 22:58:00,
2013-04-15 18:03:00,32.7,25.9,29.92,WNW,293,23.8,23.8,76,0.00,,,0.05,WUHU216HW,2013-04-15 23:03:00,
2013-04-15 18:08:00,32.5,26.1,29.93,WNW,293,25.1,25.1,77,0.00,,,0.05,WUHU216HW,2013-04-15 23:08:00,
2013-04-15 18:13:00,32.5,25.7,29.93,WNW,293,26.5,28.5,76,0.00,,,0.05,WUHU216HW,2013-04-15 23:13:00,
2013-04-15 18:18:00,32.3,24.9,29.93,WNW,293,32.9,32.9,74,0.00,,,0.05,WUHU216HW,2013-04-15 23:18:00,
2013-04-15 18:23:00,32.1,25.4,29.94,WNW,293,26.0,33.5,76,0.00,,,0.05,WUHU216HW,2013-04-15 23:23:00,
2013-04-15 18:28:00,31.8,25.1,29.95,NW,304,26.5,36.6,76,0.00,,,0.05,WUHU216HW,2013-04-15 23:28:00,
2013-04-15 18:33:00,31.8,25.4,29.94,WNW,293,23.4,36.6,77,0.00,,,0.05,WUHU216HW,2013-04-15 23:33:00,
2013-04-15 18:38:00,31.6,24.9,29.95,WNW,293,25.6,25.6,76,0.00,,,0.05,WUHU216HW,2013-04-15 23:38:00,
2013-04-15 18:43:00,31.4,25.0,29.95,WNW,293,26.0,26.0,77,0.00,,,0.05,WUHU216HW,2013-04-15 23:43:00,
2013-04-15 18:48:00,31.2,24.9,29.95,WNW,293,27.0,27.0,77,0.00,,,0.05,WUHU216HW,2013-04-15 23:48:00,
2013-04-15 18:53:00,31.1,24.7,29.95,WNW,293,27.4,27.4,77,0.00,,,0.05,WUHU216HW,2013-04-15 23:53:00,
2013-04-15 18:58:00,30.9,24.8,29.95,WNW,293,22.9,27.4,78,0.00,,,0.05,WUHU216HW,2013-04-15 23:58:00,
2013-04-15 19:03:00,30.7,24.3,29.95,WNW,293,25.8,27.4,77,0.00,,,0.05,WUHU216HW,2013-04-16 00:03:00,
2013-04-15 19:08:00,30.7,24.3,29.95,WNW,293,26.3,27.4,77,0.00,,,0.05,WUHU216HW,2013-04-16 00:08:00,
2013-04-15 19:13:00,30.7,24.6,29.96,WNW,293,23.4,26.8,78,0.00,,,0.05,WUHU216HW,2013-04-16 00:13:00,
2013-04-15 19:18:00,30.7,24.6,29.97,WNW,293,25.4,26.3,78,0.00,,,0.05,WUHU216HW,2013-04-16 00:18:00,
2013-04-15 19:23:00,30.5,24.8,29.97,WNW,293,22.9,25.4,79,0.00,,,0.05,WUHU216HW,2013-04-16 00:23:00,
2013-04-15 19:28:00,30.5,24.8,29.97,WNW,293,26.3,26.3,79,0.00,,,0.05,WUHU216HW,2013-04-16 00:28:00,
2013-04-15 19:33:00,30.3,24.6,29.97,WNW,293,18.8,26.3,79,0.00,,,0.05,WUHU216HW,2013-04-16 00:33:00,
2013-04-15 19:38:00,30.3,24.6,29.97,WNW,293,26.5,26.5,79,0.00,,,0.05,WUHU216HW,2013-04-16 00:38:00,
2013-04-15 19:43:00,30.0,24.6,29.97,WNW,293,26.0,26.5,80,0.00,,,0.05,WUHU216HW,2013-04-16 00:43:00,
2013-04-15 19:48:00,30.0,24.6,29.97,WNW,293,24.5,26.0,80,0.00,,,0.05,WUHU216HW,2013-04-16 00:48:00,
2013-04-15 19:53:00,30.0,24.9,29.98,WNW,293,21.3,26.0,81,0.00,,,0.05,WUHU216HW,2013-04-16 00:53:00,
2013-04-15 19:58:00,29.8,24.7,29.99,WNW,293,24.3,30.1,81,0.00,,,0.05,WUHU216HW,2013-04-16 00:58:00,
2013-04-15 20:03:00,29.8,24.7,29.99,WNW,293,16.8,30.1,81,0.00,,,0.05,WUHU216HW,2013-04-16 01:03:00,
2013-04-15 20:08:00,29.8,24.4,29.99,NW,305,22.3,25.6,80,0.00,,,0.05,WUHU216HW,2013-04-16 01:08:00,
2013-04-15 20:13:00,29.4,24.0,29.99,WNW,293,27.8,31.9,80,0.00,,,0.05,WUHU216HW,2013-04-16 01:13:00,
2013-04-15 20:18:00,29.1,24.0,30.00,WNW,293,27.4,31.9,81,0.00,,,0.05,WUHU216HW,2013-04-16 01:18:00,
2013-04-15 20:23:00,29.1,24.0,30.00,WNW,293,27.0,27.4,81,0.00,,,0.05,WUHU216HW,2013-04-16 01:23:00,
2013-04-15 20:28:00,29.1,24.0,30.00,NW,315,24.5,27.0,81,0.00,,,0.05,WUHU216HW,2013-04-16 01:28:00,
2013-04-15 20:33:00,29.1,24.0,30.00,WNW,293,25.4,27.6,81,0.00,,,0.05,WUHU216HW,2013-04-16 01:33:00,
2013-04-15 20:38:00,28.9,23.8,30.00,WNW,301,19.8,27.6,81,0.00,,,0.05,WUHU216HW,2013-04-16 01:38:00,
2013-04-15 20:43:00,28.7,23.6,29.99,NW,315,27.6,27.6,81,0.00,,,0.05,WUHU216HW,2013-04-16 01:43:00,
2013-04-15 20:48:00,28.5,23.7,30.00,NW,315,20.4,28.8,82,0.00,,,0.05,WUHU216HW,2013-04-16 01:48:00,
2013-04-15 20:53:00,28.5,23.7,30.00,WNW,293,24.5,28.8,82,0.00,,,0.05,WUHU216HW,2013-04-16 01:53:00,
2013-04-15 20:58:00,28.5,23.7,30.00,WNW,293,18.1,29.3,82,0.00,,,0.05,WUHU216HW,2013-04-16 01:58:00,
2013-04-15 21:03:00,28.5,23.4,30.01,WNW,293,21.3,29.3,81,0.00,,,0.05,WUHU216HW,2013-04-16 02:03:00,
2013-04-15 21:08:00,28.5,23.4,30.01,WNW,293,20.9,26.5,81,0.00,,,0.05,WUHU216HW,2013-04-16 02:08:00,
2013-04-15 21:13:00,28.7,23.6,30.01,NW,304,25.8,26.5,81,0.00,,,0.05,WUHU216HW,2013-04-16 02:13:00,
2013-04-15 21:18:00,28.5,23.1,30.01,NW,304,25.7,32.4,80,0.00,,,0.05,WUHU216HW,2013-04-16 02:18:00,
2013-04-15 21:23:00,28.2,23.1,30.02,NW,315,27.1,32.4,81,0.00,,,0.05,WUHU216HW,2013-04-16 02:23:00,
2013-04-15 21:28:00,28.2,23.1,30.03,NW,315,23.4,27.6,81,0.00,,,0.05,WUHU216HW,2013-04-16 02:28:00,
2013-04-15 21:33:00,28.2,23.1,30.03,WNW,293,27.0,27.4,79,0.00,,,0.05,WUHU216HW,2013-04-16 02:33:00,
2013-04-15 21:39:00,28.2,22.8,30.03,WNW,293,20.7,27.4,80,0.00,,,0.05,WUHU216HW,2013-04-16 02:39:00,
2013-04-15 21:44:00,28.2,22.8,30.04,NW,315,29.0,29.0,80,0.00,,,0.05,WUHU216HW,2013-04-16 02:44:00,
2013-04-15 21:49:00,28.2,22.5,30.04,WNW,293,27.6,29.0,79,0.00,,,0.05,WUHU216HW,2013-04-16 02:49:00,
2013-04-15 21:54:00,28.2,22.8,30.05,WNW,293,26.0,29.0,80,0.00,,,0.05,WUHU216HW,2013-04-16 02:54:00,
2013-04-15 21:59:00,28.2,22.8,30.06,WNW,293,17.0,27.6,80,0.00,,,0.05,WUHU216HW,2013-04-16 02:59:00,
2013-04-15 22:04:00,28.2,22.8,30.06,NW,315,28.8,28.8,80,0.00,,,0.05,WUHU216HW,2013-04-16 03:04:00,
2013-04-15 22:09:00,28.2,22.5,30.05,NW,315,27.4,28.8,79,0.00,,,0.05,WUHU216HW,2013-04-16 03:09:00,
2013-04-15 22:14:00,28.2,22.8,30.05,WNW,303,27.9,29.6,80,0.00,,,0.05,WUHU216HW,2013-04-16 03:14:00,
2013-04-15 22:19:00,28.2,22.8,30.05,WNW,293,32.3,37.1,80,0.00,,,0.05,WUHU216HW,2013-04-16 03:19:00,
2013-04-15 22:24:00,28.0,22.3,30.06,NW,315,22.3,37.1,79,0.00,,,0.05,WUHU216HW,2013-04-16 03:24:00,
2013-04-15 22:29:00,28.0,22.6,30.06,WNW,293,15.9,28.5,80,0.00,,,0.05,WUHU216HW,2013-04-16 03:29:00,
2013-04-15 22:34:00,28.0,22.6,30.06,WNW,293,21.3,28.5,80,0.00,,,0.05,WUHU216HW,2013-04-16 03:34:00,
2013-04-15 22:39:00,28.0,22.6,30.07,WNW,293,21.3,21.3,80,0.00,,,0.05,WUHU216HW,2013-04-16 03:39:00,
2013-04-15 22:44:00,28.0,22.6,30.07,WNW,293,21.3,21.3,80,0.00,,,0.05,WUHU216HW,2013-04-16 03:44:00,
2013-04-15 22:49:00,28.0,22.6,30.07,WNW,293,21.3,21.3,80,0.00,,,0.05,WUHU216HW,2013-04-16 03:49:00,